This demonstration page uses our WeatherBlox Daily Observations layout. Learn more.

Left ArrowRight Arrow

Hourly Observations for June 30, 2021

Temp ( °F °C ) Dew Point ( °F °C ) Humidity (%) Winds ( mph kmh ) Pressure ( in mb ) Visibility ( mi km ) Precip ( " mm )
12:53 am 00:53 Clear 74 23.3 73 22.8 97 97 N N/A 30.15 1021 9 14 N/A
1:53 am 01:53 Clear with Mist and Fog 73 22.8 72 22.2 96 96 N N/A 30.14 1021 6 10 N/A
2:53 am 02:53 Clear with Mist and Fog 72 22.2 71 21.7 97 97 N N/A 30.12 1020 5 8 N/A
3:53 am 03:53 Clear with Mist and Fog 72 22.2 71 21.7 97 97 N N/A 30.11 1020 4 6 N/A
4:53 am 04:53 Mostly Clear with Mist and Fog 72 22.2 71 21.7 97 97 N N/A 30.10 1019 5 8 N/A
5:53 am 05:53 Partly Cloudy with Mist and Fog 72 22.2 71 21.7 97 97 N N/A 30.10 1019 5 8 0.00 0.00
6:53 am 06:53 Partly Cloudy with Mist and Fog 73 22.8 72 22.2 96 96 N N/A 30.11 1020 5 8 N/A
7:53 am 07:53 Partly Cloudy 75 23.9 73 22.8 94 94 N N/A 30.13 1020 8 13 N/A
8:53 am 08:53 Mostly Sunny 74 23.3 71 21.7 91 91 VRB 3 6 30.16 1021 10 16 N/A
9:53 am 09:53 Mostly Cloudy 75 23.9 69 20.6 82 82 N N/A 30.16 1021 10 16 N/A
10:53 am 10:53 Cloudy 76 24.4 69 20.6 79 79 NNW 3 6 30.16 1021 10 16 N/A
11:53 am 11:53 Sunny 79 26.1 69 20.6 72 72 N N/A 30.14 1021 10 16 N/A
12:53 pm 12:53 Sunny 82 27.8 71 21.7 69 69 VRB 3 6 30.13 1020 10 16 N/A
1:53 pm 13:53 Sunny 82 27.8 70 21.1 67 67 VRB 5 7 30.10 1019 10 16 N/A
2:53 pm 14:53 Sunny 83 28.3 71 21.7 67 67 VRB 3 6 30.08 1019 10 16 N/A
3:53 pm 15:53 Sunny 83 28.3 71 21.7 67 67 VRB 3 6 30.07 1018 10 16 N/A
4:53 pm 16:53 Mostly Sunny 84 28.9 72 22.2 67 67 WNW 3 6 30.06 1018 10 16 N/A
5:27 pm 17:27 Sunny with Nearby Thunderstorms 82 27.8 73 22.8 74 74 WNW 3 6 30.04 1017 10 16 N/A
5:53 pm 17:53 Mostly Cloudy with Nearby Thunderstorms 81 27.2 73 22.8 77 77 NW 6 9 30.05 1018 8 13 0.01 0.25
6:02 pm 18:02 Cloudy with Thunderstorms 78 25.6 74 23.3 87 87 WNW 12 19 30.04 1017 3 4 0.03 0.76
6:19 pm 18:19 Cloudy with Strong Thunderstorms 73 22.8 71 21.7 94 94 VRB 5 7 30.04 1017 2 2 0.11 2.79
6:35 pm 18:35 Cloudy with Thunderstorms 71 21.7 69 20.6 94 94 N N/A 30.03 1017 2 3 0.17 4.32
6:43 pm 18:43 Cloudy with Thunderstorms 72 22.2 70 21.1 94 94 VRB 5 7 30.05 1018 3 5 0.18 4.57
6:53 pm 18:53 Cloudy with Thunderstorms 72 22.2 69 20.6 91 91 N N/A 30.05 1018 6 10 0.19 4.83
7:17 pm 19:17 Mostly Cloudy with Nearby Thunderstorms 72 22.2 70 21.1 94 94 VRB 3 6 30.04 1017 10 16 0.00 0.00
7:32 pm 19:32 Mostly Cloudy 73 22.8 71 21.7 94 94 N N/A 30.03 1017 10 16 0.00 0.00
7:53 pm 19:53 Cloudy 74 23.3 72 22.2 94 94 N N/A 30.04 1017 10 16 0.00 0.00
8:09 pm 20:09 Cloudy with Heavy Rain 73 22.8 71 21.7 94 94 N N/A 30.04 1017 3 4 0.07 1.78
8:12 pm 20:12 Cloudy with Heavy Rain 73 22.8 71 21.7 94 94 ESE 6 9 30.04 1017 1 1 0.16 4.06
8:33 pm 20:33 Cloudy with Light Rain 72 22.2 71 21.7 97 97 ESE 6 9 30.03 1017 2 3 0.39 9.91
8:40 pm 20:40 Mostly Cloudy with Nearby Thunderstorms 72 22.2 71 21.7 97 97 VRB 3 6 30.03 1017 7 11 0.39 9.91
8:49 pm 20:49 Mostly Cloudy with Thunderstorms 72 22 72 22 100 100 E 6 9 30.03 1017 8 13 0.39 9.91
8:53 pm 20:53 Mostly Cloudy with Thunderstorms 72 22.2 71 21.7 97 97 N N/A 30.04 1017 8 13 0.39 9.91
9:04 pm 21:04 Mostly Cloudy with Nearby Thunderstorms 72 22.2 71 21.7 97 97 N N/A 30.04 1017 5 8 0.02 0.51
9:18 pm 21:18 Cloudy with Thunderstorms 73 22.8 72 22.2 96 96 N N/A 30.04 1017 4 6 0.04 1.02
9:53 pm 21:53 Cloudy with Thunderstorms 72 22.2 71 21.7 97 97 W 5 7 30.04 1017 4 6 0.08 2.03
10:16 pm 22:16 Cloudy with Nearby Thunderstorms 72 22.2 71 21.7 97 97 W 3 6 30.05 1018 4 6 0.03 0.76
10:32 pm 22:32 Cloudy with Nearby Thunderstorms 72 22.2 71 21.7 97 97 VRB 5 7 30.06 1018 3 4 0.09 2.29
10:43 pm 22:43 Cloudy with Nearby Thunderstorms 72 22.2 71 21.7 97 97 VRB 3 6 30.06 1018 4 6 0.12 3.05
10:51 pm 22:51 Cloudy with Rain 72 22 72 22 100 100 VRB 3 6 30.05 1018 5 8 0.13 3.30
10:53 pm 22:53 Cloudy with Rain 72 22.2 71 21.7 97 97 N N/A 30.06 1018 5 8 0.13 3.30
11:04 pm 23:04 Cloudy with Thunderstorms 71 21.7 70 21.1 96 96 N N/A 30.04 1017 4 6 0.03 0.76
11:19 pm 23:19 Cloudy with Nearby Thunderstorms 71 21.7 70 21.1 96 96 N N/A 30.03 1017 4 6 0.07 1.78
11:26 pm 23:26 Mostly Cloudy with Light Rain 71 21.7 70 21.1 96 96 N N/A 30.03 1017 6 10 0.07 1.78
11:53 pm 23:53 Mostly Cloudy with Light Rain 71 21.7 70 21.1 96 96 N N/A 30.03 1017 10 16 0.08 2.03

Powered by AerisWeather